Terminal Aerodrome Forecast
Issued by NWS Chicago, IL

Home | Current Version | Previous Version | Graphics & Text | Print | Product List | Glossary On
Versions: 1 2 3 4 5 6 7 8 9 10 11 12 13 14 15 16 17 18 19 20 21 22 23 24 25 26 27 28 29 30 31 32
000
FTUS43 KLOT 241400 AAA
TAFRFD
TAF AMD
KRFD 241401Z 2414/2512 05006KT P6SM FEW100
     FM242200 15004KT P6SM BKN120 BKN200=

USA.gov is the U.S. government's official web portal to all federal, state and local government web resources and services.